COSMOS 886 DEB, 19244

Orbit data source: Space-Track

COSMOS 886 DEB, 19244 is space debris in LEO originally from a launch on Mon, 27 Dec 1976 UTC launched from the Tyuratam Missile And Space Complex (TTMTR). Debris objects in space refer to the collection of defunct objects orbiting the Earth. Examples of debris include non-operational satellites, rocket bodies, and fragments generated from explosions, collisions, or faulty payload assembly.

Loading next visibility...
Identifier
19244, 1976-126CA
Orbit
LEO
Country
Flag of CISCIS
Related business
Manufacturer
Unknown
Mission
Spacecraft
Bus & Motor
Unknown
Mass
Unknown
Launch date (UTC)
1976-12-27 (49 years ago)
Launch vehicle
Unknown
Launch site
Tyuratam Missile And Space Complex (TTMTR)
Object type
Payload
Rocket body
Debris
Shape & HBR
Unknown shape, 0.1 m
Radar Cross Section
Small (<0.1 m²)

Expand to show TLE details & history
Last TLE update: 11 hours ago

TLE from 11 hours ago
0 COSMOS 886 DEB
1 19244U 76126CA  26130.06103839  .00000215  00000-0  60356-3 0  9995
2 19244  66.0517 350.8588 0722683 205.6021 313.6063 12.57603551636741
Epoch: 2026-05-10T01:27Z
TLE epoch observation values (Epoch: 2026-05-10T01:27:53.716Z)
Latitude
24.71192°
Longitude
-90.71667°
Altitude
1,068.574 km
Speed
7.49 km/s
True Right ascension
10h 36m 30s
True Declination
24° 35' 13"
Sunlit
Object was in daylight at epoch
Visualization orbit readout
Latitude
Unknown
Longitude
Unknown
Altitude
Unknown
Speed
Unknown
Apparent Right ascension
Unknown
Apparent Declination
Unknown
Sunlit
N/A
Visualization observer readout
Local Sidereal Time
20:32:21
Azimuth
Unknown
Elevation
Unknown
Doppler factor
Unknown
Orbital elements
Apogee altitude
1,995.803 km
Perigee altitude
867.036 km
Semi-major axis
7,809.557 km
Eccentricity
0.07227
Inclination
66.0517°
RAAN
350.8588°
Arg. of periapsis
205.6021°
True anomaly
307.22585°
Mean anomaly
313.6063°
Eccentric anomaly
310.45563°
Mean motion
3.14488 °/min
Orbital period
114.47 mins
BSTAR
0.00060356
Loading maneuver chart data...
Computing Atmospheric mass density...
Loading historical data...
Loading historical data...
Loading historical data...
Loading historical data...
Loading historical data...
Loading historical data...
Loading historical data...

Documentation

Showing up to 5 results
|